This demonstration page uses our WeatherBlox Daily Observations layout. Learn more.

39.92423, -83.80882

Hourly Observations for July 13, 2018

Temp ( °F °C ) Dew Point ( °F °C ) Humidity (%) Winds ( mph kmh ) Pressure ( in mb ) Visibility ( mi km ) Precip ( " mm )
12:56 am 00:56 Clear 63 17.2 58 14.4 84 84 E 3 6 30.17 1022 10 16.0934 0 0
1:56 am 01:56 Clear 63 17.2 58 14.4 84 84 Calm 30.17 1022 10 16.0934 0 0
2:56 am 02:56 Clear 62 16.7 58 14.4 86 86 N 3 6 30.18 1022 10 16.0934 0 0
3:56 am 03:56 Clear 61 16.1 58 14.4 90 90 E 3 6 30.17 1022 10 16.0934 0 0
4:56 am 04:56 Clear 61 16.1 57 13.9 87 87 Calm 30.16 1021 10 16.0934 0 0
5:56 am 05:56 Clear 58 14.4 56 13.3 93 93 E 3 6 30.16 1022 10 16.0934 0 0
6:56 am 06:56 Sunny 60 15.6 57 13.9 90 90 ENE 3 6 30.17 1022 10 16.0934 0 0
7:56 am 07:56 Sunny 65 18.3 60 15.6 84 84 Calm 30.18 1022 10 16.0934 0 0
8:56 am 08:56 Sunny 72 22.2 61 16.1 68 68 E 5 7 30.18 1022 10 16.0934 0 0
9:56 am 09:56 Sunny 76 24.4 62 16.7 62 62 Calm 30.18 1022 10 16.0934 0 0
10:56 am 10:56 Sunny 79 26.1 62 16.7 56 56 VRB 3 6 30.17 1022 10 16.0934 0 0
11:56 am 11:56 Sunny 80 26.7 63 17.2 56 56 SSE 6 9 30.17 1022 9 14.48406 0 0
12:56 pm 12:56 Sunny 82 27.8 63 17.2 53 53 SE 9 15 30.16 1022 10 16.0934 0 0
1:56 pm 13:56 Sunny 82 27.8 61 16.1 49 49 Calm 30.16 1021 10 16.0934 0 0
2:56 pm 14:56 Sunny 83 28.3 61 16.1 48 48 VRB 5 7 30.16 1021 10 16.0934 0 0
3:56 pm 15:56 Sunny 85 29.4 63 17.2 48 48 SE 6 9 30.14 1021 9 14.48406 0 0
4:56 pm 16:56 Sunny 85 29.4 63 17.2 48 48 SE 5 7 30.12 1020 10 16.0934 0 0
5:56 pm 17:56 Sunny 84 28.9 61 16.1 46 46 SSE 3 6 30.12 1020 8 12.87472 0 0
6:56 pm 18:56 Sunny 84 28.9 64 17.8 51 51 SE 6 9 30.1 1019 10 16.0934 0 0
7:56 pm 19:56 Sunny 81 27.2 68 20 65 65 SSE 3 6 30.09 1019 10 16.0934 0 0
8:56 pm 20:56 Sunny 78 25.6 66 18.9 67 67 Calm 30.09 1019 10 16.0934 0 0
9:56 pm 21:56 Clear 73 22.8 65 18.3 76 76 ESE 3 6 30.1 1019 8 12.87472 0 0
10:56 pm 22:56 Clear 70 21.1 66 18.9 87 87 Calm 30.13 1020 10 16.0934 0 0
11:56 pm 23:56 Clear 68 20 65 18.3 90 90 Calm 30.13 1020 10 16.0934 0 0

Powered by AerisWeather